TimeCDT,TemperatureF,Dew PointF,Humidity,Sea Level PressureIn,VisibilityMPH,Wind Direction,Wind SpeedMPH,Gust SpeedMPH,PrecipitationIn,Events,Conditions,WindDirDegrees,DateUTC
12:52 AM,21.9,18.0,85,30.41,10.0,SSW,3.5,-,N/A,,Clear,210,2013-03-13 05:52:00
1:52 AM,21.9,18.0,85,30.42,10.0,Calm,Calm,-,N/A,,Clear,0,2013-03-13 06:52:00
2:52 AM,19.9,17.1,89,30.42,10.0,Calm,Calm,-,N/A,,Clear,0,2013-03-13 07:52:00
3:52 AM,19.9,18.0,92,30.42,10.0,Calm,Calm,-,N/A,,Clear,0,2013-03-13 08:52:00
4:52 AM,18.0,16.0,92,30.41,10.0,Calm,Calm,-,N/A,,Clear,0,2013-03-13 09:52:00
5:52 AM,19.0,16.0,88,30.44,10.0,Calm,Calm,-,N/A,,Clear,0,2013-03-13 10:52:00
6:52 AM,17.1,15.1,92,30.44,10.0,Calm,Calm,-,N/A,,Clear,0,2013-03-13 11:52:00
7:52 AM,19.0,16.0,88,30.47,10.0,Calm,Calm,-,N/A,,Clear,0,2013-03-13 12:52:00
8:52 AM,21.9,19.0,89,30.50,10.0,Calm,Calm,-,N/A,,Clear,0,2013-03-13 13:52:00
9:52 AM,27.0,23.0,85,30.51,10.0,Calm,Calm,-,N/A,,Overcast,0,2013-03-13 14:52:00
10:52 AM,32.0,24.1,73,30.51,10.0,Calm,Calm,-,N/A,,Overcast,0,2013-03-13 15:52:00
11:52 AM,33.1,24.1,70,30.51,10.0,NE,4.6,-,N/A,,Overcast,50,2013-03-13 16:52:00
12:52 PM,37.0,23.0,57,30.49,10.0,South,4.6,-,N/A,,Overcast,170,2013-03-13 17:52:00
1:52 PM,42.8,19.4,39,30.42,10.0,Variable,4.6,-,N/A,,Clear,0,2013-03-13 18:52:00
2:52 PM,46.0,21.9,39,30.39,10.0,SSE,9.2,-,N/A,,Scattered Clouds,160,2013-03-13 19:52:00
3:52 PM,48.9,19.9,32,30.38,10.0,South,5.8,16.1,N/A,,Clear,190,2013-03-13 20:52:00
4:52 PM,51.1,19.0,28,30.37,10.0,SW,9.2,17.3,N/A,,Clear,230,2013-03-13 21:52:00
5:52 PM,51.1,21.9,32,30.35,10.0,SSE,11.5,-,N/A,,Clear,160,2013-03-13 22:52:00
6:52 PM,48.2,23.0,37,30.30,10.0,SE,10.4,-,N/A,,Clear,130,2013-03-13 23:52:00
7:52 PM,43.0,24.1,47,30.31,10.0,SE,5.8,-,N/A,,Clear,130,2013-03-14 00:52:00
8:52 PM,42.8,24.8,49,30.27,10.0,SE,4.6,-,N/A,,Clear,130,2013-03-14 01:52:00
9:52 PM,39.9,24.1,53,30.30,10.0,Calm,Calm,-,N/A,,Clear,0,2013-03-14 02:52:00
10:52 PM,37.9,24.1,57,30.29,10.0,Calm,Calm,-,N/A,,Clear,0,2013-03-14 03:52:00
11:52 PM,37.9,25.0,60,30.28,10.0,Calm,Calm,-,N/A,,Clear,0,2013-03-14 04:52:00